Regional Weather Roundup
Issued by NWS Grand Forks, ND

Home | Current Version | Previous Version | Graphics & Text | Print | Product List | Glossary On
Versions: 1 2 3 4 5 6 7 8 9 10 11 12 13 14 15 16 17 18 19 20 21 22 23 24 25 26 27 28 29 30 31 32 33 34 35 36 37 38 39 40 41 42 43 44 45 46 47 48 49 50
000
ASUS43 KFGF 261610
RWRFGF
PRAIRIE TO PINES  WEATHER ROUNDUP
NATIONAL WEATHER SERVICE EASTERN NORTH DAKOTA/GRAND FORKS ND
1100 AM CDT FRI AUG 26 2016

 **SATELLITE DATA USED TO AUGMENT SKY COVER AT AUTOMATED STATIONS**
 *****  WEATHER ACROSS EASTERN NORTH DAKOTA  *****

CITY           SKY/WX    TMP DP  RH WIND       PRES   REMARKS
GRAND FORKS    MOSUNNY   68  54  60 SE10      30.06F
GRAND FRKS AFB SUNNY     70  55  58 S6        30.07S
GRAND FRKS NWS   N/A     66 N/A N/A SE13        N/A
DEVILS LAKE    CLOUDY    65  51  60 SW8       30.07S
FARGO          SUNNY     69  52  54 SW7       30.11F
WAHPETON ARPT  SUNNY     64  52  63 CALM      30.14F
$$

 ***** WEATHER ACROSS CENTRAL AND WESTERN NORTH DAKOTA  *****

CITY           SKY/WX    TMP DP  RH WIND       PRES   REMARKS
BISMARCK       CLOUDY    60  51  72 SE6       30.12R
MINOT          CLOUDY    70  48  45 SW13      30.03F
JAMESTOWN      MOSUNNY   65  52  62 W10       30.11R
MINOT AFB      CLOUDY    70  46  42 SW12      30.02S
GARRISON         N/A     66  50  56 W7        30.07S
WILLISTON      PTSUNNY   64  44  48 S7        30.04F
DICKINSON      SUNNY     68  42  38 S15       30.07F
HETTINGER      SUNNY     65  49  56 S7        30.11F
$$

 *****  OTHER AIRPORT OBSERVATIONS IN OUR AREA  *****

CITY           SKY/WX    TMP DP  RH WIND       PRES   REMARKS
WALHALLA       NOT AVBL
GRAFTON AIRPOR FAIR      68  55  64 VRB6      30.07F
VALLEY CITY AR FAIR      66  54  63 SW10      30.13S
CANDO          NOT AVBL
CAVALIER APRT  FAIR      68  54  60 S7        30.04S
GWINNER        FAIR      66  55  68 SW14      30.14F
SHEYENNE NWR     N/A     69  55  60 SW9       29.95S
ROLLA          FAIR      64  50  59 SW10      30.05S
 ***** THE ABOVE OBSERVATIONS ARE NON NWS ARE NOT QUALITY
       CONTROLLED AND MAY MIS-REPORT RAIN FOR SNOW...
$$

  *****  WEATHER ACROSS NORTHERN MINNESOTA  *****

CITY           SKY/WX    TMP DP  RH WIND       PRES   REMARKS
FLAG ISLAND    SUNNY     64  50  59 CALM      30.07R
WARROAD        SUNNY     66  55  68 S3        30.08S
ROSEAU         SUNNY     68  55  64 S6        30.07S
HALLOCK        SUNNY     70  52  52 S8        30.05S
THF RVR FALLS  SUNNY     66  53  63 SE6       30.10F
BAUDETTE       SUNNY     66  52  60 S5        30.09S
WASKISH        SUNNY     68  55  64 SW5       30.11R
CROOKSTON      SUNNY     64  54  68 S8        30.09F
GREENBUSH NDAW   N/A     72  48  43 S6          N/A
$$
  *****  WEATHER ACROSS CENTRAL AND WEST MINNESOTA  *****

CITY           SKY/WX    TMP DP  RH WIND       PRES   REMARKS
FOSSTON        SUNNY     64  54  68 S7        30.12F
BEMIDJI        SUNNY     67  54  64 SW5       30.13R
PARK RAPIDS    SUNNY     68  52  56 VRB6      30.14F
ELBOW LAKE     FAIR      65  56  71 SW5       30.16F
WADENA         SUNNY     66  54  63 SW6       30.15S
DETROIT LAKES  SUNNY     66  52  59 W6        30.15S
MOORHEAD       SUNNY     68  54  60 SW7       30.13F
FERGUS FALLS   SUNNY     64  55  72 SW3       30.17F
MORRIS MN      SUNNY     70  54  56 CALM      30.16S
STAPLES        SUNNY     68  52  56 SW9       30.16S
$$
  *****  WEATHER ELSEWHERE ACROSS MINNESOTA  *****

CITY           SKY/WX    TMP DP  RH WIND       PRES   REMARKS
DULUTH         MOSUNNY   69  50  50 CALM      30.16S
INTRNTL FALLS  SUNNY     66  55  67 VRB6      30.10F
ELY            SUNNY     63  50  63 CALM      30.15F
CLOQUET        SUNNY     66  45  45 CALM      30.16F
WHEATON        NOT AVBL
BRAINERD       SUNNY     67  54  63 SW8       30.16F
HIBBING        MOSUNNY   65  50  58 VRB6      30.15S
ALEXANDRIA     SUNNY     67  53  61 W3        30.18F
SAINT CLOUD    SUNNY     68  57  68 S5        30.17F
MINNEAPOLIS    PTSUNNY   67  55  65 S5        30.19S
$$

  *****  WEATHER ACROSS SOUTH DAKOTA  *****

CITY           SKY/WX    TMP DP  RH WIND       PRES   REMARKS
SIOUX FALLS    PTSUNNY   67  56  67 SE7       30.18S
BROOKINGS      SUNNY     64  54  69 VRB5      30.18S
WATERTOWN      MOSUNNY   65  54  67 S5        30.17S
HURON          MOSUNNY   67  53  61 S8        30.15F
SISSETON         N/A     71  51  49 VRB5      30.14S
ABERDEEN       CLOUDY    67  53  61 VRB5      30.14F
MITCHELL       CLOUDY    68  53  58 SW5       30.17S
PIERRE         LGT RAIN  57  54  89 W9        30.20R
MOBRIDGE       LGT RAIN  58  50  75 SW9       30.14R
RAPID CITY     CLOUDY    55  52  89 SE6       30.15F
$$

  *****  SOME WEATHER IN NEARBY STATES *****

CITY           SKY/WX    TMP DP  RH WIND       PRES   REMARKS
GLASGOW MT     CLOUDY    58  50  75 W9        30.05F
GREAT FALLS MT CLOUDY    57  44  62 SW3       30.14F
CHEYENNE WY    CLOUDY    61  48  62 S6        30.19S
SCOTTSBLUFF NE MOSUNNY   61  55  81 NW5       30.12S
OMAHA NE       CLOUDY    69  60  73 E10       30.13F
DES MOINES IA  CLOUDY    68  62  81 E13       30.15F
DAVENPORT IA   MOSUNNY   71  61  70 E9        30.18F
CHICAGO IL     PTSUNNY   75  59  57 VRB5      30.18F
EAU CLAIRE WI  CLOUDY    69  52  54 NW5       30.19S
LA CROSSE WI   CLOUDY    69  58  67 CALM      30.19F
$$

  *****  SOME NATIONAL WEATHER *****

CITY           SKY/WX    TMP DP  RH WIND       PRES   REMARKS
LA GUARDIA NY  MOSUNNY   87  70  56 NW16      29.97S HX  92
RALEIGH NC     MOSUNNY   93  71  48 VRB6      30.10F HX 100
ATLANTA GA     MOSUNNY   87  68  52 E3        30.14S HX  90
NEW ORLEANS LA PTSUNNY   89  75  63 NE14      30.04R HX  99
OKLAHOMA CITY  MOSUNNY   82  68  62 CALM      30.08S
ALBUQUERQUE NM CLOUDY    68  55  63 NW5       30.24R
SALT LAKE CITY MOSUNNY   74  42  31 S16       30.03S
LOS ANGELES CA CLOUDY    67  56  67 SE7       29.97R
BOISE ID       MOSUNNY   71  34  25 S9        30.00S
SEATTLE WA     PTSUNNY   70  54  56 NW5       29.96S
$$

*** WEATHER ACROSS MANITOBA...SASKATCHEWAN AND ONTARIO ***
                ***ONTARIO***

CITY           SKY/WX    TMP DP  RH WIND       PRES   REMARKS
GERALDTON      MOSUNNY   64  52  63 NW6       30.08S
THUNDER BAY    MOSUNNY   66  48  52 VRB3      30.12S
SIOUX LOOKOUT  MOSUNNY   66  52  59 SW8       30.08S
TORONTO        PTSUNNY   79  63  57 W6        30.09R
BIG TROUT LK   SUNNY     68  55  64 W10       29.89S
PICKLE LAKE    MOSUNNY   64  54  68 W8        30.03S
DRYDEN         MOSUNNY   64  50  59 SW5       30.08F
KENORA         MOSUNNY   66  50  55 SW8       30.07R
$$
                *** MANITOBA***

CITY           SKY/WX    TMP DP  RH WIND       PRES   REMARKS
BRANDON        PTSUNNY   61  50  67 SW6       30.00S
DAUPHIN        CLOUDY    66  52  59 SW7       29.95S
ISLAND LAKE    PTSUNNY   68  57  68 SW9       29.90S
PILOT MOUND      N/A     70  48  46 SW9         N/A
THE PAS        MOSUNNY   66  54  63 NE5       29.87F
THOMPSON       CLOUDY    55  52  88 N5        29.92R
WINNIPEG       MOSUNNY   68  50  52 S12       30.02S
LYNN LAKE      MOSUNNY   54  41  62 MISG      29.94F
CHURCHILL      MOSUNNY   50  39  66 NW13G20   29.90R
GILLAM         CLOUDY    54  48  82 VRB3      29.91S
$$
                ***SASKATCHEWAN***

CITY           SKY/WX    TMP DP  RH WIND       PRES   REMARKS
ESTEVAN        PTSUNNY   64  50  59 SW6       30.01S
KINDERSLEY     CLOUDY    55  52  88 NW8       30.02S
LLOYDMINSTER   MOSUNNY   59  50  72 N6        30.00F
PRINCE ALBERT  LGT RAIN  57  55  94 NW5       29.91S
REGINA         PTSUNNY   61  54  77 SW10      29.98S
YORKTON        PTSUNNY   63  55  77 SW9       29.94S
N. BATTLEFORD  CLOUDY    57  55  94 NW7       30.00S
LA RONGE       PTSUNNY   59  52  77 NE10      29.94F
SASKATOON      LGT RAIN  61  57  88 N15       29.95S
SWIFT CURRENT  LGT RAIN  54  54 100 NW14G20   30.00S
$$
NOTE: THESE ARE AUTOMATED STATIONS WITH LIMITED QUALITY CONTROL
      "FAIR" INDICATES FEW OR NO CLOUDS BELOW 12,000 FEET WITH NO
      SIGNIFICANT WEATHER AND/OR OBSTRUCTIONS TO VISIBILITY.
      SKY/WX - SKY CONDITION AND SIGNIFICANT WEATHER.
      TMP - AIR TEMPERATURE.    DP   - DEWPOINT TEMPERATURE.
      RH  - RELATIVE HUMIDITY.  PRES - PRESSURE.
      HX  - HEAT INDEX.         WCI  - WIND CHILL INDEX.
$




USA.gov is the U.S. government's official web portal to all federal, state and local government web resources and services.